#timestamp,LO_Frequency,Hit,StdDev 
1647820815.5,286047001.5,N
1647820835.3,286046999.9,N
1647820855.2,286047000.8,N
1647820875.0,286047001.1,N
1647820875.9,286047001.1,N
1647820895.8,286046998.5,N
1647820915.6,286047000.9,N
1647820935.4,286046999.0,N
1647820955.3,286046999.0,N
1647820975.1,286046999.3,N
1647820995.8,286046998.9,N
1647821015.7,286046998.2,N
1647821035.5,286046998.8,N
1647821055.4,286047000.4,N
1647821075.2,286046998.1,N
1647821095.0,286046998.9,N
1647821095.9,286046998.9,N
1647821115.8,286046998.7,N
1647821135.6,286046999.9,N
1647821155.5,286046999.9,N
1647821175.3,286046998.2,N
1647821195.1,286047000.2,N
1647821215.9,286046999.4,N
1647821235.7,286046999.0,N
1647821255.5,286046999.2,N
1647821275.4,286046999.2,N
1647821295.2,286046998.9,N
1647821315.1,286046998.4,N
1647821316.0,286046998.4,N
1647821335.8,286046998.5,N
1647821355.6,286047000.6,N
1647821375.5,286047000.9,N
1647821395.3,286047000.9,N
1647821415.1,286047000.3,N
1647821435.9,286047002.3,N
1647821455.7,286047002.4,N
1647821475.6,286047000.6,N
1647821495.4,286047000.8,N
1647821515.2,286047000.5,N
1647821535.1,286046999.8,N
1647821536.0,286046999.8,N
1647821555.8,286047001.3,N
1647821575.6,286047001.0,N
1647821595.5,286046998.3,N
1647821615.3,286046998.3,N
1647821635.2,286047000.3,N
1647821655.9,286047000.0,N
1647821675.7,286046998.7,N
1647821695.6,286046998.8,N
1647821715.4,286046997.1,N
1647821735.2,286046998.9,N
1647821755.1,286046997.1,N
1647821756.0,286046997.1,N
1647821775.8,286046999.5,N
1647821795.7,286046997.0,N
1647821815.5,286046999.5,N
1647821835.3,286046999.4,N
1647821855.2,286046998.7,N
1647821875.0,286046999.2,N
1647821875.9,286046999.2,N
1647821895.8,286046998.7,N
1647821915.6,286047000.7,N
1647821935.4,286047000.0,N
1647821955.3,286047000.2,N
1647821975.1,286047000.3,N
1647821995.8,286047000.5,N
1647822015.7,286047001.2,N
1647822035.5,286047001.2,N
1647822055.4,286047000.8,N
1647822075.2,286046998.2,N
1647822095.0,286046998.6,N
1647822095.9,286046998.6,N
1647822115.8,286047001.2,N
1647822135.6,286046998.7,N
1647822155.4,286046998.2,N
1647822175.3,286047001.2,N
1647822195.1,286046998.2,N
1647822215.9,286046998.1,N
1647822235.7,286046998.7,N
1647822255.5,286046999.0,N
1647822275.4,286046999.3,N
1647822295.2,286046999.3,N
1647822315.0,286046998.7,N
1647822315.9,286046998.7,N
1647822335.8,286046998.5,N
1647822355.6,286046998.5,N
1647822375.5,286047002.8,N
1647822395.3,286046998.9,N
1647822415.1,286046999.3,N
1647822435.9,286046998.6,N
1647822455.7,286047000.8,N
1647822475.5,286047001.2,N
1647822495.4,286046998.8,N
1647822515.2,286046997.0,N
1647822535.1,286046998.5,N
1647822536.0,286046998.5,N
1647822555.8,286047000.5,N
1647822575.6,286047000.9,N
1647822595.5,286046999.4,N
1647822615.3,286047001.2,N
1647822635.1,286047001.0,N
1647822655.9,286046998.6,N
1647822675.7,286046998.8,N
1647822695.6,286046998.2,N
1647822715.4,286047000.8,N
1647822735.2,286047000.8,N
1647822755.1,286046999.1,N
1647822756.0,286046999.1,N
1647822775.8,286046998.7,N
1647822795.7,286047001.1,N
1647822815.5,286047001.0,N
1647822835.3,286046999.8,N
1647822855.2,286047004.3,Y
1647822875.0,286047003.0,P
1647822875.9,286047003.0,N
1647822895.8,286047004.0,N
1647822915.6,286047004.3,N
1647822935.4,286047003.8,N
1647822955.3,286047001.7,N
1647822975.1,286047002.5,N
1647822995.8,286047004.2,N
1647823015.7,286047003.1,N
1647823035.5,286047003.9,N
1647823055.3,286047001.3,N
1647823075.2,286047003.7,N
1647823095.0,286047004.3,Y
1647823095.9,286047004.3,P
1647823115.8,286046999.6,N
1647823135.6,286046997.8,N
1647823155.4,286046996.9,N
1647823175.3,286046997.1,N
1647823195.1,286046997.1,N
1647823215.9,286046999.1,N
1647823235.7,286046999.3,N
1647823255.5,286046999.3,N
1647823275.4,286046998.7,N
1647823295.2,286046998.8,N
1647823315.0,286046998.6,N
1647823316.0,286046998.6,N
1647823335.8,286046998.6,N
1647823355.6,286047000.2,N
1647823375.5,286046998.7,N
1647823395.3,286047001.1,N
1647823415.1,286047000.8,N
1647823435.9,286046997.2,N
1647823455.7,286046999.5,N
1647823475.6,286046999.1,N
1647823495.4,286046996.8,N
1647823515.2,286046997.5,N
1647823535.1,286046997.8,N
1647823536.0,286046997.8,N
1647823555.8,286046999.2,N
1647823575.6,286047001.0,N
1647823595.5,286046998.3,N
1647823615.3,286046998.9,N
1647823635.2,286046998.8,N
1647823655.9,286047000.5,N
1647823675.7,286046998.1,N
1647823695.6,286046998.8,N
1647823715.4,286046996.6,N
1647823735.2,286046996.7,N
1647823755.1,286046997.0,N
1647823756.0,286046997.0,N
1647823775.8,286046999.4,N
1647823795.7,286046998.5,N
1647823815.5,286047001.2,N
1647823835.3,286047000.1,N
1647823855.2,286047000.5,N
1647823875.0,286046999.0,N
1647823875.9,286046999.0,N
1647823895.8,286047001.1,N
1647823915.6,286046998.7,N
1647823935.4,286046998.7,N
1647823955.3,286046999.1,N
1647823975.1,286046998.7,N
1647823995.9,286046996.6,N
1647824015.7,286046997.5,N
1647824035.5,286046997.8,N
1647824055.4,286046997.4,N
1647824075.2,286046998.4,N
1647824095.0,286046996.9,N
1647824095.9,286046996.9,N
1647824115.8,286046998.4,N
1647824135.6,286046999.8,N
1647824155.5,286046998.2,N
1647824175.3,286047000.8,N
1647824195.1,286046998.9,N
1647824215.9,286046999.4,N
1647824235.7,286046998.4,N
1647824255.6,286046999.6,N
1647824275.4,286046998.7,N
1647824295.2,286046999.1,N
1647824315.1,286046996.6,N
1647824316.0,286046996.6,N
1647824335.8,286046998.2,N
1647824355.6,286046999.5,N
1647824375.5,286046999.4,N
1647824395.3,286047000.3,N
